This is the latest recevied weather packets stored in our database for station/object WA1OUI. If no packets are shown the sender has not sent any weather packets the latest 10 day(s).
| Time | Temp. | Humidity | Pressure | Rain* | Wind** | Luminosity | Snow |
|---|---|---|---|---|---|---|---|
| 1777931215 | 21.67° C | 30% | 1006 hPa | 0 mm | - | 74 W/m² | - |
| 1777930912 | 21.67° C | 29% | 1006.1 hPa | 0 mm | - | 93 W/m² | - |
| 1777930608 | 21.67° C | 29% | 1006.1 hPa | 0 mm | - | 102 W/m² | - |
| 1777930001 | 21.67° C | 31% | 1006.1 hPa | 0 mm | - | 63 W/m² | - |
| 1777929698 | 22.22° C | 28% | 1005.9 hPa | 0 mm | - | 48 W/m² | - |
| 1777929396 | 22.22° C | 28% | 1006 hPa | 0 mm | - | 59 W/m² | - |
| 1777929092 | 22.22° C | 27% | 1006 hPa | 0 mm | - | 67 W/m² | - |
| 1777928790 | 22.78° C | 28% | 1006.2 hPa | 0 mm | - | 65 W/m² | - |
| 1777928486 | 22.78° C | 27% | 1006.1 hPa | 0 mm | - | 111 W/m² | - |
| 1777928184 | 22.78° C | 27% | 1006.1 hPa | 0 mm | - | 125 W/m² | - |
| 1777927580 | 23.33° C | 28% | 1006.1 hPa | 0 mm | - | 187 W/m² | - |
| 1777926976 | 23.33° C | 27% | 1006.1 hPa | 0 mm | - | 324 W/m² | - |
| 1777925156 | 22.78° C | 27% | 1006.3 hPa | 0 mm | - | 446 W/m² | - |
| 1777924246 | 23.33° C | 27% | 1006.2 hPa | 0 mm | - | 499 W/m² | - |
| 1777923638 | 23.33° C | 27% | 1006.5 hPa | 0 mm | - | 178 W/m² | - |
| 1777923034 | 23.89° C | 26% | 1006.5 hPa | 0 mm | - | 539 W/m² | - |
| 1777922127 | 23.33° C | 28% | 1006.5 hPa | 0 mm | - | 567 W/m² | - |
| 1777919401 | 22.78° C | 26% | 1006.8 hPa | 0 mm | - | 676 W/m² | - |
| 1777919097 | 22.22° C | 29% | 1006.8 hPa | 0 mm | - | 696 W/m² | - |
| 1777918190 | 22.22° C | 27% | 1007 hPa | 0 mm | - | 198 W/m² | - |
| 1777917889 | 22.22° C | 28% | 1007 hPa | 0 mm | - | 748 W/m² | - |
| 1777917587 | 22.22° C | 32% | 1007.2 hPa | 0 mm | - | 748 W/m² | - |
| 1777917283 | 22.22° C | 28% | 1007.1 hPa | 0 mm | - | 761 W/m² | - |
| 1777916679 | 21.67° C | 27% | 1007.4 hPa | 0 mm | - | 749 W/m² | - |
| 1777916376 | 21.67° C | 26% | 1007.3 hPa | 0 mm | - | 771 W/m² | - |
* Rain latest hour (hover to see other rain measurements)
** Current wind speed in m/s (hover to see current wind gust speed)